KC3ROS Weather Reports


Display with metric or nautical units.
time (UTC)temp
F
wind
direction
speed
MPH
gust
MPH
rain 1hr
in
rain 24hr
in
rain mn
in
humidity
%
barometer
mb
20260507005813 49 55 2.0 4.0 0.00 0.52 0.52 67 1011.7
20260507005310 50 48 2.0 3.0 0.00 0.52 0.52 67 1011.7
20260507004801 50 38 2.0 3.0 0.00 0.52 0.52 65 1011.7
20260507004258 50 28 2.0 4.0 0.00 0.52 0.52 65 1011.8
20260507003755 50 32 2.0 5.0 0.00 0.52 0.52 65 1011.9
20260507003250 50 15 2.0 3.0 0.00 0.52 0.52 65 1011.8
20260507002746 50 28 2.0 3.0 0.00 0.52 0.52 66 1011.8
20260507002242 50 52 4.0 5.0 0.00 0.52 0.52 65 1011.6
20260507001739 50 33 2.0 3.0 0.00 0.52 0.52 66 1011.6
20260507001237 51 56 1.0 3.0 0.00 0.52 0.52 66 1011.4
20260507000733 51 38 2.0 3.0 0.00 0.52 0.52 65 1011.5
20260507000229 51 15 2.0 4.0 0.00 0.52 0.52 64 1011.5
20260506235726 51 34 2.0 3.0 0.00 0.52 0.52 65 1011.7
20260506235221 51 341 4.0 6.0 0.00 0.52 0.52 65 1011.6
20260506234718 51 36 2.0 3.0 0.00 0.52 0.52 66 1011.8
20260506234216 51 50 1.0 3.0 0.00 0.52 0.52 66 1011.7
20260506233713 51 45 2.0 4.0 0.00 0.52 0.52 66 1011.5
20260506233209 51 349 2.0 3.0 0.00 0.52 0.52 65 1011.5
20260506232707 52 60 2.0 5.0 0.00 0.52 0.52 64 1011.1
20260506232201 52 4 2.0 4.0 0.00 0.52 0.52 65 1011.3
20260506231658 52 42 2.0 4.0 0.00 0.52 0.52 66 1011.3
20260506231157 52 67 1.0 4.0 0.00 0.52 0.52 68 1011.0
20260506230653 52 352 2.0 4.0 0.00 0.52 0.52 67 1011.0
20260506230150 52 17 2.0 5.0 0.00 0.52 0.52 66 1011.1
20260506225646 52 358 2.0 4.0 0.00 0.52 0.52 67 1010.9
20260506225143 53 11 2.0 4.0 0.00 0.52 0.52 67 1010.6
20260506224640 53 346 5.0 6.0 0.00 0.52 0.52 66 1010.6
20260506224136 53 23 1.0 5.0 0.00 0.52 0.52 66 1010.6
20260506223633 53 349 5.0 6.0 0.00 0.52 0.52 67 1010.6
20260506223129 53 51 2.0 3.0 0.00 0.52 0.52 65 1010.5
20260506222626 53 9 2.0 7.0 0.00 0.52 0.52 66 1010.5
20260506222122 53 10 2.0 3.0 0.00 0.52 0.52 69 1010.3
20260506221620 54 1 2.0 3.0 0.00 0.52 0.52 68 1010.5
20260506221118 54 41 2.0 3.0 0.00 0.52 0.52 68 1010.3
20260506220614 54 15 3.0 4.0 0.00 0.52 0.52 66 1010.2
20260506220109 54 28 2.0 3.0 0.00 0.52 0.52 66 1010.3
20260506215606 54 339 3.0 4.0 0.00 0.52 0.52 65 1010.0
20260506215102 54 3 1.0 3.0 0.00 0.52 0.52 67 1010.2
20260506214559 54 25 1.0 3.0 0.00 0.52 0.52 68 1010.1
20260506214056 54 354 3.0 5.0 0.00 0.52 0.52 69 1009.9
20260506213554 54 12 2.0 3.0 0.00 0.52 0.52 72 1009.9
20260506213051 54 265 4.0 5.0 0.00 0.52 0.52 69 1009.8
20260506212548 54 36 2.0 3.0 0.00 0.52 0.52 71 1009.8
20260506212043 53 356 3.0 5.0 0.00 0.52 0.52 70 1009.7
20260506211539 53 356 2.0 8.0 0.00 0.52 0.52 69 1009.8
20260506211036 54 333 4.0 7.0 0.00 0.52 0.52 69 1010.0
20260506210533 54 334 2.0 5.0 0.00 0.52 0.52 71 1009.5
20260506210030 54 64 1.0 3.0 0.00 0.52 0.52 74 1009.8
20260506205526 53 350 3.0 3.0 0.00 0.52 0.52 76 1009.7
20260506205021 53 9 3.0 4.0 0.00 0.52 0.52 76 1009.4
20260506204520 53 29 2.0 3.0 0.00 0.52 0.52 77 1009.4
20260506204016 53 20 2.0 3.0 0.00 0.52 0.52 77 1009.4
20260506203515 53 26 2.0 3.0 0.00 0.52 0.52 76 1009.6
20260506203011 53 7 2.0 3.0 0.00 0.52 0.52 75 1009.4
20260506202508 53 325 2.0 3.0 0.00 0.52 0.52 75 1009.3
20260506202004 53 354 3.0 5.0 0.00 0.52 0.52 75 1009.5
20260506201503 53 7 3.0 7.0 0.00 0.52 0.52 74 1009.4
20260506200959 53 328 2.0 5.0 0.00 0.52 0.52 73 1009.4
20260506200455 53 344 3.0 5.0 0.00 0.52 0.52 72 1009.4
20260506195951 53 340 5.0 6.0 0.00 0.52 0.52 75 1009.5
20260506195448 53 324 2.0 6.0 0.00 0.52 0.52 76 1009.4
20260506194945 53 3 2.0 5.0 0.00 0.52 0.52 78 1009.4
20260506194442 53 339 2.0 3.0 0.00 0.52 0.52 75 1009.3
20260506193939 53 36 2.0 4.0 0.00 0.52 0.52 73 1009.7
20260506193436 52 13 1.0 4.0 0.00 0.52 0.52 73 1009.7
20260506192933 52 311 1.0 4.0 0.00 0.52 0.52 77 1009.6
20260506192430 52 0 1.0 5.0 0.00 0.52 0.52 80 1009.7
20260506191926 52 320 2.0 3.0 0.00 0.52 0.52 81 1009.4
20260506191423 52 356 3.0 6.0 0.00 0.52 0.52 82 1009.6
20260506190920 52 338 3.0 6.0 0.00 0.52 0.52 81 1009.6
20260506190416 52 327 3.0 7.0 0.00 0.52 0.52 80 1009.5
20260506185913 52 29 3.0 4.0 0.00 0.52 0.52 84 1009.4
20260506185410 53 294 3.0 4.0 0.00 0.52 0.52 85 1009.4
20260506184908 54 345 2.0 3.0 0.00 0.52 0.52 84 1009.4
20260506184404 54 51 2.0 3.0 0.00 0.52 0.52 84 1009.5
20260506183902 53 147 0.0 4.0 0.00 0.52 0.52 85 1009.1
20260506183356 51 55 2.0 3.0 0.00 0.52 0.52 87 1009.4
20260506182854 52 38 2.0 4.0 0.00 0.52 0.52 88 1009.2
20260506182351 51 31 1.0 3.0 0.00 0.52 0.52 89 1009.2
20260506181848 51 29 2.0 3.0 0.00 0.52 0.52 88 1009.2
20260506181346 51 23 3.0 5.0 0.00 0.52 0.52 88 1009.5
20260506180843 51 5 2.0 7.0 0.00 0.52 0.52 88 1009.4
20260506180339 52 359 2.0 4.0 0.00 0.52 0.52 89 1009.1
20260506175836 52 9 2.0 4.0 0.00 0.52 0.52 89 1009.2
20260506175333 52 301 2.0 4.0 0.00 0.52 0.52 88 1009.3
20260506174830 52 227 0.0 6.0 0.00 0.52 0.52 88 1009.3
20260506174327 51 24 0.0 3.0 0.00 0.52 0.52 89 1009.2
20260506173825 51 29 3.0 6.0 0.00 0.52 0.52 89 1009.1
20260506173321 52 14 1.0 6.0 0.00 0.52 0.52 88 1009.1
20260506172818 51 332 5.0 6.0 0.00 0.52 0.52 89 1009.0
20260506172315 50 359 1.0 4.0 0.00 0.52 0.52 91 1009.0
20260506171812 51 0 1.0 2.0 0.00 0.52 0.52 93 1009.3
20260506171309 50 337 2.0 5.0 0.00 0.52 0.52 92 1009.2
20260506170807 51 301 2.0 3.0 0.00 0.52 0.52 93 1009.1
20260506170303 51 18 0.0 4.0 0.00 0.52 0.52 93 1009.4
20260506165802 51 18 1.0 4.0 0.00 0.52 0.52 92 1008.9
20260506165259 51 39 1.0 4.0 0.00 0.52 0.52 92 1008.9
20260506164756 51 322 3.0 5.0 0.00 0.52 0.52 92 1009.1
20260506164252 51 349 2.0 4.0 0.00 0.52 0.52 93 1009.0
20260506163749 51 6 1.0 4.0 0.00 0.52 0.52 97 1009.1
20260506163244 49 1 1.0 2.0 0.00 0.52 0.52 99 1008.9
20260506162740 48 355 2.0 5.0 0.00 0.52 0.52 99 1008.9
20260506162238 49 325 1.0 5.0 0.00 0.52 0.52 99 1008.8
20260506161730 48 59 3.0 5.0 0.00 0.52 0.52 99 1008.8
20260506161227 49 11 1.0 4.0 0.00 0.52 0.52 99 1008.7
20260506160724 48 335 2.0 4.0 0.00 0.52 0.52 99 1008.6
20260506160221 48 5 1.0 5.0 0.00 0.52 0.52 99 1008.8
20260506155720 48 0 2.0 4.0 0.00 0.52 0.52 99 1008.7
20260506155216 48 45 3.0 5.0 0.00 0.52 0.52 99 1008.5
20260506153318 48 20 2.0 5.0 0.00 0.52 0.52 99 1008.2
20260506152815 48 25 0.0 4.0 0.00 0.52 0.52 99 1008.4
20260506152312 47 342 3.0 5.0 0.00 0.52 0.52 99 1008.0
20260506151811 48 353 3.0 4.0 0.00 0.52 0.52 99 1008.0
20260506151307 48 328 3.0 4.0 0.00 0.52 0.52 99 1008.0
20260506150804 48 343 2.0 4.0 0.00 0.52 0.52 99 1007.8
20260506150304 48 31 2.0 5.0 0.00 0.52 0.52 99 1007.7
20260506145758 47 21 1.0 4.0 0.00 0.52 0.52 99 1007.7
20260506145254 48 341 3.0 4.0 0.00 0.52 0.52 99 1007.7
20260506144752 48 303 0.0 3.0 0.00 0.52 0.52 99 1007.6
20260506144248 48 13 2.0 3.0 0.00 0.52 0.52 99 1007.5
20260506143746 47 20 1.0 2.0 0.00 0.52 0.52 99 1007.2
20260506143243 47 15 0.0 5.0 0.00 0.52 0.52 99 1007.2
20260506142742 47 334 3.0 3.0 0.00 0.52 0.52 99 1007.3
20260506142239 47 8 1.0 3.0 0.00 0.52 0.52 99 1007.3
20260506141738 47 1 3.0 5.0 0.00 0.52 0.52 99 1007.3
20260506141235 47 301 1.0 4.0 0.00 0.52 0.52 99 1007.0
20260506140733 47 340 2.0 3.0 0.00 0.52 0.52 99 1007.0
20260506140230 47 14 0.0 3.0 0.00 0.52 0.52 99 1007.1
20260506135726 47 52 1.0 5.0 0.00 0.52 0.52 99 1007.0
20260506135222 47 16 1.0 5.0 0.02 0.52 0.52 99 1007.0
20260506134720 47 14 2.0 4.0 0.02 0.52 0.52 99 1006.9
20260506134216 47 10 2.0 3.0 0.00 0.52 0.52 99 1006.7
20260506133713 46 55 0.0 3.0 0.02 0.52 0.52 99 1006.7
20260506133209 46 333 3.0 3.0 0.02 0.52 0.52 99 1006.7
20260506132707 46 1 2.0 5.0 0.00 0.52 0.52 99 1006.8
20260506132203 46 16 3.0 5.0 0.00 0.52 0.52 99 1006.8
20260506131702 46 10 3.0 7.0 0.02 0.52 0.52 99 1006.7
20260506131157 46 13 3.0 7.0 0.02 0.52 0.52 99 1006.8
20260506130654 47 333 2.0 7.0 0.00 0.51 0.51 99 1006.9
20260506130152 47 345 2.0 3.0 0.02 0.51 0.51 99 1006.8
20260506125650 47 5 3.0 6.0 0.02 0.51 0.51 99 1006.6
20260506125148 47 359 2.0 5.0 0.00 0.51 0.51 99 1006.4
20260506124645 47 358 4.0 6.0 0.00 0.51 0.51 99 1005.9
20260506124142 47 2 2.0 6.0 0.00 0.51 0.51 99 1006.1
20260506123640 47 339 3.0 5.0 0.00 0.51 0.51 99 1005.8
20260506123138 47 21 2.0 3.0 0.02 0.51 0.51 99 1005.3
20260506122635 47 69 2.0 4.0 0.00 0.50 0.50 99 1005.3
20260506122133 47 302 0.0 4.0 0.00 0.50 0.50 99 1005.9
20260506121630 48 349 1.0 4.0 0.00 0.50 0.50 99 1006.2
20260506121126 48 357 2.0 3.0 0.02 0.50 0.50 99 1006.1
20260506120624 47 341 1.0 4.0 0.02 0.50 0.50 99 1006.1
20260506120121 48 23 0.0 2.0 0.00 0.50 0.50 99 1006.0
20260506115620 48 17 0.0 4.0 0.00 0.50 0.50 99 1006.0
20260506115118 48 41 2.0 4.0 0.00 0.50 0.50 99 1006.0
20260506114614 48 357 2.0 5.0 0.00 0.50 0.50 99 1006.1
20260506114113 48 9 2.0 3.0 0.00 0.50 0.50 99 1006.0
20260506113611 49 18 2.0 6.0 0.02 0.50 0.50 99 1005.8
20260506113108 49 18 2.0 5.0 0.02 0.50 0.50 99 1005.1
20260506112604 49 8 3.0 4.0 0.00 0.50 0.50 99 1005.1
20260506112102 49 38 1.0 4.0 0.02 0.50 0.50 99 1005.1
20260506111559 50 285 3.0 5.0 0.02 0.50 0.50 99 1005.0
20260506111056 50 330 5.0 7.0 0.02 0.49 0.49 99 1004.8
20260506110554 51 346 5.0 6.0 0.05 0.49 0.49 99 1004.6
20260506110051 52 351 3.0 5.0 0.05 0.49 0.49 99 1004.7
20260506105547 53 12 2.0 5.0 0.07 0.48 0.48 99 1004.6
20260506105044 54 263 3.0 6.0 0.09 0.48 0.48 99 1004.6
20260506104542 55 223 1.0 5.0 0.09 0.47 0.47 99 1004.6
20260506104040 55 214 3.0 4.0 0.12 0.47 0.47 99 1004.3
20260506103537 55 220 0.0 5.0 0.14 0.45 0.45 99 1004.4
20260506103033 55 86 2.0 5.0 0.17 0.44 0.44 99 1004.6
20260506102532 55 143 2.0 3.0 0.14 0.42 0.42 99 1004.5
20260506102029 55 212 2.0 7.0 0.12 0.41 0.41 99 1004.5
20260506101526 55 236 2.0 5.0 0.12 0.40 0.40 99 1004.5
20260506101023 55 246 0.0 4.0 0.14 0.39 0.39 99 1004.5
20260506100521 55 216 3.0 4.0 0.17 0.37 0.37 99 1004.4
20260506100019 55 228 6.0 8.0 0.09 0.35 0.35 99 1004.4
20260506095518 55 121 2.0 6.0 0.05 0.34 0.34 99 1004.3
20260506095013 55 229 2.0 3.0 0.05 0.34 0.34 99 1004.3
20260506094511 55 230 3.0 4.0 0.07 0.34 0.34 99 1004.3
20260506094009 55 190 2.0 3.0 0.05 0.33 0.33 99 1004.2
20260506093507 55 232 2.0 6.0 0.07 0.32 0.32 99 1004.4
20260506093004 55 230 3.0 5.0 0.12 0.32 0.32 99 1004.6
20260506092502 55 102 1.0 4.0 0.14 0.31 0.31 99 1004.5
20260506091958 55 209 3.0 4.0 0.14 0.29 0.29 99 1004.5
20260506091457 55 245 3.0 4.0 0.14 0.28 0.28 99 1004.7
20260506090953 55 161 1.0 7.0 0.12 0.27 0.27 99 1004.7
20260506090451 55 217 2.0 3.0 0.07 0.26 0.26 99 1004.7
20260506085947 55 132 2.0 6.0 0.09 0.25 0.25 99 1005.0
20260506085444 55 180 1.0 7.0 0.09 0.24 0.24 99 1004.9
20260506084941 55 224 1.0 8.0 0.09 0.23 0.23 99 1005.1
20260506084438 55 220 1.0 5.0 0.12 0.22 0.22 99 1005.0
20260506083934 55 99 1.0 3.0 0.12 0.22 0.22 99 1005.2
20260506083431 55 154 2.0 5.0 0.12 0.20 0.20 99 1005.3
20260506082928 55 104 0.0 2.0 0.12 0.19 0.19 99 1005.0
20260506082425 55 6 2.0 6.0 0.14 0.18 0.18 99 1005.0
20260506081921 55 89 0.0 2.0 0.12 0.17 0.17 99 1004.9
20260506081420 55 132 0.0 3.0 0.12 0.16 0.16 99 1005.2
20260506080916 55 203 0.0 2.0 0.17 0.15 0.15 99 1005.1
20260506080413 55 276 0.0 3.0 0.09 0.14 0.14 99 1005.1
20260506073357 55 231 1.0 3.0 0.00 0.12 0.12 99 1004.8
20260506072854 55 89 0.0 2.0 0.00 0.12 0.12 99 1004.9
20260506072352 55 214 0.0 3.0 0.00 0.12 0.12 99 1004.6
20260506071849 55 150 1.0 4.0 0.00 0.12 0.12 99 1004.8
20260506071347 55 148 0.0 2.0 0.00 0.12 0.12 99 1005.1
20260506070844 55 49 0.0 3.0 0.00 0.12 0.12 99 1004.8
20260506070341 56 142 0.0 3.0 0.00 0.12 0.12 99 1005.1
20260506062318 57 241 2.0 4.0 0.05 0.11 0.11 99 1005.8
20260506061814 57 239 2.0 4.0 0.02 0.10 0.10 99 1005.9
20260506061311 57 166 0.0 6.0 0.05 0.10 0.10 99 1005.8
20260506060809 57 86 0.0 4.0 0.05 0.09 0.09 99 1006.1
20260506060307 57 242 0.0 4.0 0.05 0.09 0.09 99 1006.1
20260506051238 58 230 0.0 2.0 0.05 0.05 0.05 99 1007.1
20260506050736 58 151 0.0 3.0 0.07 0.05 0.05 98 1007.2
20260506050233 58 230 0.0 1.0 0.05 0.04 0.04 98 1007.2
20260506044724 58 53 0.0 2.0 0.07 0.02 0.02 97 1007.3
20260506044221 58 110 0.0 1.0 0.05 0.02 0.02 96 1007.4
20260506043719 58 154 0.0 1.0 0.05 0.01 0.01 95 1007.5
20260506043216 59 193 0.0 3.0 0.05 0.01 0.01 95 1007.5
20260506042715 59 212 0.0 1.0 0.02 0.00 0.00 93 1007.3
20260506042213 59 242 0.0 1.0 0.00 0.00 0.00 92 1007.1
20260506041711 59 205 0.0 2.0 0.00 0.00 0.00 92 1007.1
20260506041208 59 154 0.0 1.0 0.00 0.00 0.00 91 1007.1
20260506040705 59 75 0.0 1.0 0.00 0.00 0.00 91 1007.1
20260506040202 59 41 1.0 2.0 0.00 0.00 0.00 90 1007.2
20260506035658 59 322 2.0 3.0 0.00 0.00 0.00 90 1007.2
20260506035155 59 0 0.0 3.0 0.00 0.00 0.00 90 1007.1
20260506034652 59 333 0.0 3.0 0.00 0.00 0.00 90 1007.1
20260506034149 60 348 2.0 4.0 0.00 0.00 0.00 89 1007.1
20260506033647 60 350 2.0 3.0 0.00 0.00 0.00 89 1007.0
20260506033143 60 345 3.0 6.0 0.00 0.00 0.00 89 1007.0
20260506032641 60 89 0.0 0.0 0.00 0.00 0.00 89 1006.9
20260506032138 60 99 1.0 2.0 0.00 0.00 0.00 88 1006.6
20260506031634 60 243 1.0 2.0 0.00 0.00 0.00 88 1006.9
20260506031131 60 82 1.0 2.0 0.00 0.00 0.00 88 1006.8
20260506030630 60 37 0.0 1.0 0.00 0.00 0.00 88 1006.8
20260506030126 60 23 1.0 5.0 0.00 0.00 0.00 87 1006.9
20260506025623 60 60 2.0 3.0 0.00 0.00 0.00 87 1006.9
20260506025119 60 12 1.0 3.0 0.00 0.00 0.00 87 1007.1
20260506024617 60 48 2.0 4.0 0.00 0.00 0.00 86 1007.2
20260506024112 61 0 2.0 5.0 0.00 0.00 0.00 85 1007.3
20260506023609 61 353 2.0 4.0 0.00 0.00 0.00 84 1007.0
20260506023107 61 60 2.0 3.0 0.00 0.00 0.00 83 1007.1
20260506022604 62 314 1.0 5.0 0.00 0.00 0.00 82 1007.1
20260506022101 62 349 3.0 7.0 0.00 0.00 0.00 80 1007.2
20260506021559 64 9 3.0 9.0 0.00 0.00 0.00 75 1007.0
20260506021056 65 322 3.0 6.0 0.00 0.00 0.00 70 1006.9
20260506020553 66 186 0.0 4.0 0.00 0.00 0.00 65 1006.8
20260506020051 66 150 0.0 1.0 0.00 0.00 0.00 60 1006.5
20260506015548 66 205 0.0 2.0 0.00 0.00 0.00 60 1006.5
20260506015045 66 154 0.0 2.0 0.00 0.00 0.00 59 1006.6
20260506014543 67 191 1.0 3.0 0.00 0.00 0.00 59 1006.6
20260506014038 67 242 2.0 5.0 0.00 0.00 0.00 59 1006.7
20260506013537 67 219 2.0 4.0 0.00 0.00 0.00 59 1006.6
20260506013033 67 166 1.0 3.0 0.00 0.00 0.00 58 1006.5
20260506012529 67 220 2.0 4.0 0.00 0.00 0.00 59 1006.5
20260506012026 67 139 2.0 4.0 0.00 0.00 0.00 58 1006.4
20260506011524 67 194 2.0 5.0 0.00 0.00 0.00 58 1006.5
20260506011019 67 204 5.0 9.0 0.00 0.00 0.00 58 1006.6
20260506010514 67 164 0.0 5.0 0.00 0.00 0.00 58 1006.4